Regional Weather Roundup
Issued by NWS Sterling, VA

Home | Current Version | Previous Version | Text Only | Print | Product List | Glossary Off
Versions: 1 2 3 4 5 6 7 8 9 10 11 12 13 14 15 16 17 18 19 20 21 22 23 24 25 26 27

000
ASUS41 KLWX 180710
RWRLWX

REGIONAL WEATHER ROUNDUP
NATIONAL WEATHER SERVICE BALTIMORE MD/WASHINGTON DC
300 AM EDT FRI APR 18 2014

Note: "FAIR" indicates few or no clouds below 12,000 feet
with no significant weather and/or obstructions to visibility.
 TC=TEMPERATURE CELSIUS

 * =Non NWS site. Station does not report precipitation (e.g. rain,
    snow, etc.), thunder, or fog.

DCZ001-MDZ009-015-VAZ040>042-051-053>054-180800-
WASHINGTON METRO

CITY           SKY/WX    TMP DP  RH WIND       PRES   REMARKS
WASHINGTON NAT MOCLDY    40  31  70 NE6       30.52F
DULLES         PTCLDY    35  31  85 CALM      30.51F
ANDREWS AFB    MOCLDY    37  30  78 E6        30.50F
FT BELVOIR     CLEAR     35  32  89 CALM      30.52F
QUANTICO       PTCLDY    40  32  73 E9        30.53F
COLLEGE PARK*  MOCLDY    36  32  87 CALM      30.51F
LEESBURG*      CLEAR     37  34  87 CALM      30.51F
MANASSAS*      CLEAR     36  34  93 CALM      30.52F
GAITHERSBURG*  CLEAR     34  28  80 CALM      30.53F

$$

MDZ006>007-011-014-180800-
BALTIMORE METRO

CITY           SKY/WX    TMP DP  RH WIND       PRES   REMARKS
BWI AIRPORT    MOCLDY    39  30  70 E12       30.51F
MD SCIENCE CTR   N/A     40  29  64 MISG      30.53F
MARTIN STATE   MOCLDY    41  32  70 NE5       30.55F
ANNAPOLIS      CLOUDY    41  32  70 E9        30.52F
FORT MEADE*    CLOUDY    36  32  87 E6        30.53F

$$

MDZ012-015-019>023-180800-
MARYLAND EASTERN SHORE

CITY           SKY/WX    TMP DP  RH WIND       PRES   REMARKS
OCEAN CITY     CLEAR     40  33  76 NE8       30.48F
SALISBURY      PTCLDY    40  32  73 NE9       30.50F
BAY BRIDGE AP* CLOUDY    39  32  75 E5        30.53F
CAMBRIDGE*     MOCLDY    41  32  70 E5        30.51F
EASTON*        PTCLDY    41  33  74 E8        30.55F

$$

MDZ017>025-180800-
SOUTHERN MARYLAND

CITY           SKY/WX    TMP DP  RH WIND       PRES   REMARKS
PATUXENT RIVER CLOUDY    40  30  67 E8        30.50F
ST INIGOES     CLOUDY    41  32  70 NE7       30.50F
LEONARDTOWN*   CLOUDY    37  30  75 NE3       30.51F

$$

MDZ003>005-180800-
NORTH CENTRAL MARYLAND

CITY           SKY/WX    TMP DP  RH WIND       PRES   REMARKS
FREDERICK*     CLEAR     34  34 100 CALM      30.54F
HAGERSTOWN APT CLEAR     37  31  78 E5        30.48F
WESTMINSTER*   CLEAR     36  30  80 E3        30.48F

$$

MDZ501>502-180800-
WESTERN MARYLAND

CITY           SKY/WX    TMP DP  RH WIND       PRES   REMARKS
OAKLAND*       CLEAR     32  27  80 SE15      30.33F WCI  22
CUMBERLAND*    CLEAR     41  32  70 CALM      30.48F

$$

VAZ025>031-180800-
SHENANDOAH VALLEY

CITY           SKY/WX    TMP DP  RH WIND       PRES   REMARKS
WINCHESTER*    CLEAR     36  32  87 CALM      30.48S
STAUNTON*      PTCLDY    37  30  77 CALM      30.45F

$$

WVZ021-048>050-054>055-180800-
EASTERN WEST VIRGINIA PANHANDLE

CITY           SKY/WX    TMP DP  RH WIND       PRES   REMARKS
MARTINSBURG    CLEAR     37  30  75 E3        30.49F
PETERSBURG*    FAIR      37  34  87 CALM      30.43S

$$

VAZ036>039-050-180800-
CENTRAL FOOTHILLS

CITY           SKY/WX    TMP DP  RH WIND       PRES   REMARKS
CHARLOTTESVILL MOCLDY    37  32  82 NE6       30.49F
CULPEPER*      PTCLDY    36  36 100 CALM      30.53R

$$

VAZ055>057-180800-
NORTH AND CENTRAL PIEDMONT

CITY           SKY/WX    TMP DP  RH WIND       PRES   REMARKS
FREDERICKSBRG* CLEAR     39  34  81 E3        30.51F
STAFFORD*      CLEAR     35  34  93 CALM      30.55F

$$

NCZ024-NYZ072-PAZ021-071-VAZ022-071-180800-
OTHER REGIONAL OBSERVATIONS

CITY           SKY/WX    TMP DP  RH WIND       PRES   REMARKS
NEW YORK CITY  MOCLDY    38  27  64 E5        30.61F
PHILADELPHIA   CLOUDY    39  28  64 E10       30.56F
PITTSBURGH     PTCLDY    45  27  49 SE6       30.32F
ROANOKE        PTCLDY    41  32  70 S3        30.46F
RICHMOND       PTCLDY    38  32  79 NE5       30.48F
RALEIGH        MOCLDY    41  35  79 NE6       30.44F

$$

ANZ530>537-180800-
MARINE OBSERVATIONS

STATION/POSITION TIME  TEMP    WIND        PRES
                       AIR SEA DIR/SP/G
                 (UTC) (F)     (DEG/KT/KT) (MB)
THOMAS PT LIGHT  0700   39 51   60/ 10/ 12 1033.9F
BALT KEY BRIDGE  0700   40      70/  8/ 11 1034.1S
COVE POINT       0700   39      60/ 10/ 11 1033.3R
LEWISETTA        0700   42 53   80/ 11/ 13 1032.5S
SOLOMONS ISLAND  0700      51                N/A
PINEY POINT      0700           70/  5/  6   N/A

$$




USA.gov is the U.S. government's official web portal to all federal, state and local government web resources and services.